Home > Weather > Spydeberg > Past weeks

Flag for Norway Past Weather in Spydeberg, Norway — Yesterday and Last 2 Weeks

Now
55 °F

Passing clouds.


Feels Like: 54 °F
Forecast: 47 / 62 °F
Wind: 6 mph from Northeast

Location: Rygge

Current Time: May 27, 2016 at 10:23:29 PM

Latest Report: May 27, 2016 at 9:50 PM


Visibility: N/A

Pressure: 30.18 "Hg

Humidity: 67%

Dew Point: 45 °F

Location of SpydebergLocation

Past Weather in Spydeberg — Graph

°F

Spydeberg Temperature Yesterday

Maximum temperature yesterday: 68 °F (at 5:50 PM)
Minimum temperature yesterday: 46 °F (at 4:20 AM)
Average temperature yesterday: 57 °F

High & Low Weather Summary for the Past Weeks

 TemperatureHumidityPressure
High68 °F (May 26, 5:50 PM)100% (May 17, 3:20 AM)30.18 "Hg (May 17, 3:20 AM)
Low39 °F (May 17, 2:50 AM)27% (May 15, 5:20 PM)29.65 "Hg (May 13, 4:20 PM)
Average53 °F72%29.84 "Hg
* Reported May 12 8:20 PM — May 27 8:50 PM, Spydeberg, Weather by CustomWeather, © 2016

Note: Actual official high and low records may vary slightly from our data, if they occured in-between our weather recording intervals... More about our weather records

Advertising

Spydeberg Weather History for the Previous 24 Hours

Scroll right to see more
 ConditionsComfort  
Time TempWeatherWind HumidityBarometerVisibility
8:50 PM
Fri, May 27
57 °FSunny.8 mph63%30.15 "Hg10 mi
8:20 PM59 °FSunny.10 mph59%30.15 "Hg10 mi
7:50 PM59 °FSunny.13 mph63%30.15 "Hg10 mi
7:20 PM63 °FScattered clouds.10 mph56%30.12 "HgN/A
6:50 PM66 °FBroken clouds.6 mph56%30.12 "HgN/A
6:20 PM64 °FSunny.6 mph56%30.12 "Hg10 mi
5:50 PM61 °FSunny.7 mph63%30.12 "Hg10 mi
5:20 PM63 °FSunny.13 mph59%30.12 "Hg10 mi
4:50 PM66 °FSunny.2 mph52%30.09 "Hg10 mi
4:20 PM66 °FSunny.2 mph52%30.12 "Hg10 mi
3:50 PM64 °FSunny.6 mph56%30.12 "Hg10 mi
3:20 PM64 °FPassing clouds.9 mph56%30.12 "HgN/A
2:50 PM64 °FSunny.8 mph56%30.12 "Hg10 mi
2:20 PM66 °FPassing clouds.8 mph46%30.09 "HgN/A
1:50 PM66 °FSunny.7 mph49%30.09 "Hg10 mi
1:20 PM66 °FPassing clouds.9 mph49%30.12 "HgN/A
12:50 PM64 °FPassing clouds.8 mph52%30.12 "HgN/A
12:20 PM66 °FPassing clouds.9 mph52%30.12 "HgN/A
11:50 AM64 °FPassing clouds.12 mph56%30.12 "HgN/A
11:20 AM63 °FPassing clouds.12 mph56%30.12 "HgN/A
10:50 AM63 °FPassing clouds.10 mph52%30.12 "HgN/A
10:20 AM61 °FPassing clouds.12 mph52%30.12 "HgN/A
9:50 AM61 °FPassing clouds.12 mph52%30.12 "HgN/A
9:20 AM61 °FSunny.15 mph52%30.12 "Hg10 mi
8:50 AM59 °FSunny.14 mph55%30.12 "Hg10 mi
8:20 AM61 °FSunny.10 mph55%30.12 "Hg10 mi
7:50 AM61 °FSunny.10 mph55%30.09 "Hg10 mi
7:20 AM57 °FSunny.10 mph59%30.09 "Hg10 mi
6:50 AM55 °FSunny.10 mph63%30.09 "Hg10 mi
6:20 AM55 °FSunny.10 mph63%30.09 "Hg10 mi
5:20 AM55 °FOvercast.9 mph63%30.09 "HgN/A
4:50 AM55 °FMostly cloudy.9 mph63%30.09 "HgN/A
4:20 AM55 °FMostly cloudy.9 mph63%30.09 "HgN/A
3:50 AM55 °FOvercast.9 mph63%30.09 "HgN/A
3:20 AM55 °FOvercast.8 mph63%30.09 "HgN/A
2:50 AM55 °FOvercast.9 mph67%30.09 "HgN/A
2:20 AM54 °FOvercast.7 mph72%30.09 "HgN/A
1:50 AM55 °FOvercast.7 mph67%30.09 "HgN/A
1:20 AM55 °FMostly cloudy.6 mph67%30.12 "HgN/A
12:50 AM55 °FMostly cloudy.7 mph63%30.12 "HgN/A
12:20 AM55 °FOvercast.9 mph63%30.12 "HgN/A
11:50 PM
Thu, May 26
55 °FClear.6 mph63%30.12 "Hg10 mi
11:20 PM55 °FClear.5 mph63%30.09 "Hg10 mi
10:50 PM55 °FSunny.5 mph63%30.09 "Hg10 mi
10:20 PM57 °FSunny.6 mph59%30.09 "Hg10 mi
Weather by CustomWeather, © 2016

See weather overviewHow to use our weather pages